This is the latest recevied weather packets stored in our database for station/object K3JSE-4. If no packets are shown the sender has not sent any weather packets the latest 10 day(s).
| Time | Temp. | Humidity | Pressure | Rain* | Wind** | Luminosity | Snow |
|---|---|---|---|---|---|---|---|
| 1777506643 | 10° C | 78% | 1009.8 hPa | 0 mm | - | - | - |
| 1777506343 | 10° C | 77% | 1009.8 hPa | 0 mm | - | - | - |
| 1777506043 | 10° C | 77% | 1009.9 hPa | 0 mm | - | - | - |
| 1777505743 | 10° C | 77% | 1010 hPa | 0 mm | - | - | - |
| 1777505443 | 10.56° C | 77% | 1010.2 hPa | 0 mm | - | - | - |
| 1777505143 | 10.56° C | 77% | 1010.3 hPa | 0 mm | - | - | - |
| 1777504843 | 11.11° C | 76% | 1010.1 hPa | 0 mm | - | - | - |
| 1777504543 | 11.11° C | 75% | 1010.1 hPa | 0 mm | - | - | - |
| 1777504243 | 11.11° C | 73% | 1010.1 hPa | 0 mm | - | - | - |
| 1777503943 | 11.11° C | 76% | 1010.1 hPa | 0 mm | - | - | - |
| 1777503643 | 11.11° C | 78% | 1010.2 hPa | 0 mm | - | - | - |
| 1777503343 | 11.11° C | 79% | 1010.1 hPa | 0 mm | - | - | - |
| 1777503043 | 11.11° C | 79% | 1009.9 hPa | 0 mm | - | - | - |
| 1777502743 | 11.11° C | 80% | 1010.1 hPa | 0 mm | - | - | - |
| 1777502443 | 11.11° C | 79% | 1010 hPa | 0 mm | - | - | - |
| 1777502143 | 11.11° C | 78% | 1009.9 hPa | 0 mm | - | - | - |
| 1777501843 | 11.11° C | 79% | 1010.1 hPa | 0 mm | - | - | - |
| 1777501543 | 11.11° C | 78% | 1010.4 hPa | 0 mm | - | - | - |
| 1777501243 | 11.11° C | 78% | 1010.2 hPa | 0 mm | - | - | - |
| 1777500943 | 11.67° C | 76% | 1009.9 hPa | 0 mm | - | - | - |
| 1777500643 | 11.67° C | 73% | 1009.9 hPa | 0 mm | - | - | - |
| 1777500343 | 12.22° C | 72% | 1009.8 hPa | 0 mm | - | - | - |
| 1777500043 | 12.22° C | 69% | 1009.8 hPa | 0 mm | - | - | - |
| 1777499743 | 12.22° C | 71% | 1009.7 hPa | 0 mm | - | - | - |
| 1777499443 | 12.22° C | 69% | 1010 hPa | 0 mm | - | - | - |
* Rain latest hour (hover to see other rain measurements)
** Current wind speed in m/s (hover to see current wind gust speed)